Theta_e
343 344 346 348 348 348 348 349 349 350 349 350 350 350 350 350 349 350 350 349 349 348 347 347 347 347 347 348 347 347 345 343 342 342 342 341 339 340 341 341 341 341 341 341 342 342 345 345 346 346 345 345 343 343 345 345 344 342 343 342 342 341 341 341 340 339 339 339 341 342 341 340 341 341 341 342 342 340 339 340 340 337 337 341 345
342 345 346 347 348 348 349 348 349 349 349 350 350 349 349 350 350 350 350 349 348 347 347 346 347 347 347 347 347 347 345 342 341 342 342 341 340 339 340 340 340 340 340 342 343 344 344 344 344 345 345 344 344 343 342 342 342 342 342 341 342 342 341 341 341 341 340 339 339 339 339 340 340 339 340 340 340 340 338 339 339 336 336 342 343
343 346 347 347 349 350 350 349 349 350 349 350 350 350 349 350 350 350 350 349 347 347 347 347 346 347 347 347 347 346 345 343 340 342 342 340 340 339 340 340 340 340 339 340 342 342 342 343 343 344 344 344 343 342 342 340 341 340 340 341 341 342 343 341 342 341 339 338 338 339 338 338 338 338 339 339 339 338 338 337 338 338 335 341 341
343 345 347 347 348 350 349 349 349 349 349 349 349 349 349 349 348 350 350 350 349 348 347 346 347 346 346 346 346 346 343 342 340 341 341 340 339 339 338 339 339 339 341 343 343 344 344 344 345 344 343 343 342 342 341 338 340 340 340 340 340 340 341 341 340 339 339 338 337 335 334 331 334 337 339 339 339 337 336 337 337 338 339 339 339
344 346 346 347 348 349 350 349 349 349 348 349 349 349 349 349 349 349 350 350 349 348 346 346 346 346 346 346 346 345 342 341 341 341 341 340 339 339 339 338 338 339 341 345 346 346 346 345 343 343 341 340 340 341 338 338 339 340 340 340 341 341 341 340 340 338 338 337 336 334 330 331 332 337 338 338 338 337 336 336 336 337 336 337 338
343 345 346 347 347 348 349 350 349 349 349 349 349 349 349 348 348 349 348 349 349 347 346 346 346 346 346 345 346 344 342 341 341 341 340 340 339 339 339 338 341 344 345 346 345 346 345 344 342 341 339 338 338 338 336 338 339 339 339 339 340 340 341 341 341 338 336 335 333 329 329 330 331 333 338 338 337 336 336 336 337 337 336 337 337
343 345 345 347 347 347 347 350 349 349 349 349 349 348 348 348 348 348 348 349 349 347 346 346 346 346 345 345 345 342 342 341 341 340 340 339 339 339 338 338 339 340 341 342 343 344 343 343 341 340 340 339 339 336 336 337 338 339 339 340 341 339 337 338 338 336 335 331 326 327 328 329 329 331 338 337 337 336 336 338 337 336 336 337 337
343 344 345 346 347 346 346 350 349 349 349 348 349 348 347 348 348 348 348 348 347 347 346 346 345 345 345 345 344 342 341 341 341 340 340 339 338 338 339 340 341 341 341 342 341 343 342 342 342 340 340 339 339 337 336 337 338 338 339 339 340 340 337 336 335 335 334 328 327 326 327 329 329 330 336 337 336 336 337 337 337 336 336 336 335
343 344 346 348 347 345 348 348 349 349 349 349 348 348 347 348 348 348 347 347 347 347 346 346 345 345 345 344 343 341 341 341 340 340 339 339 338 338 339 343 344 344 344 344 344 344 343 342 340 340 340 339 338 336 337 337 338 338 339 339 340 340 338 337 335 333 333 332 332 329 328 328 329 330 335 337 336 336 336 335 336 337 337 336 335
342 345 347 347 347 343 347 348 349 349 349 348 348 347 347 348 347 347 346 346 346 346 346 345 345 345 344 344 343 341 341 341 340 339 339 339 338 338 337 338 339 340 342 341 342 342 342 340 340 339 339 339 337 336 336 337 338 338 339 339 340 339 338 337 335 333 332 332 332 333 335 335 331 333 337 339 338 338 337 335 336 336 337 337 336
342 344 346 347 346 343 348 349 350 349 348 348 348 347 347 347 347 346 346 346 346 345 345 345 345 345 344 344 343 342 341 341 340 339 338 338 337 338 337 337 337 336 338 339 340 340 339 338 337 337 337 337 335 336 336 336 336 337 338 339 339 337 337 335 333 330 331 331 332 332 334 336 332 333 338 339 340 340 337 336 336 337 337 338 338
342 344 347 345 345 343 348 348 349 349 348 348 348 348 348 347 347 346 346 346 345 345 345 345 344 344 343 343 342 340 340 340 339 338 338 337 337 337 336 336 336 336 336 335 335 335 336 335 335 335 335 335 335 336 335 335 335 335 336 338 337 337 334 332 327 326 328 331 331 331 331 331 332 333 339 342 341 338 336 338 337 338 337 338 337
342 345 345 345 344 341 345 347 347 349 348 348 348 348 347 347 347 346 346 345 345 345 345 345 344 343 343 343 341 339 339 341 340 339 338 338 337 337 337 336 336 336 335 334 334 334 334 334 334 333 334 334 335 334 334 334 334 334 335 336 337 334 331 329 325 325 325 326 328 330 331 331 331 338 338 338 339 338 338 338 337 337 338 337 336
342 345 346 345 343 342 338 341 345 348 349 348 347 347 347 346 346 346 346 346 345 345 345 344 344 343 343 343 341 339 338 340 340 339 339 337 337 337 336 336 336 335 334 333 333 333 334 334 333 332 333 334 334 334 333 333 333 334 334 334 335 333 328 327 326 323 323 323 326 327 329 330 330 336 336 338 339 338 337 337 336 336 336 336 335
342 344 345 344 342 340 339 337 342 343 346 348 347 347 347 346 346 346 346 346 345 345 345 344 343 343 343 342 341 339 337 338 338 339 338 338 337 337 336 335 335 333 332 332 332 332 332 333 333 331 334 334 333 332 332 333 334 334 334 335 331 329 326 322 322 321 321 322 322 323 323 325 332 333 335 336 337 337 336 335 335 335 335 334 333
344 344 345 344 343 340 339 336 332 334 340 344 345 346 347 346 347 346 346 346 345 345 345 344 344 343 342 342 341 339 337 338 337 337 337 337 337 337 336 335 332 330 329 331 333 332 332 333 331 331 333 333 332 332 333 333 332 333 333 333 330 328 325 323 322 322 322 321 322 322 322 326 333 332 332 333 334 334 335 335 334 333 333 333 332
343 343 343 343 343 342 342 340 334 331 333 337 339 342 345 346 346 346 346 346 346 346 345 344 344 343 342 342 341 341 338 337 336 335 335 336 336 335 333 332 331 330 331 332 333 333 333 331 331 331 332 332 332 332 332 331 331 331 332 330 329 328 326 325 326 326 326 326 327 327 327 328 334 335 334 333 334 333 332 333 334 334 334 333 333
342 342 341 341 342 342 341 342 338 340 340 334 333 338 342 346 345 345 345 345 345 346 345 345 344 343 342 341 340 340 339 338 337 335 335 335 335 335 333 332 331 330 330 331 333 332 331 330 330 331 331 331 331 330 330 330 330 330 331 329 329 327 326 325 325 325 326 327 325 326 327 332 333 334 335 335 335 335 334 334 334 334 333 332 331
341 342 341 340 341 341 341 341 341 342 342 341 340 337 335 340 343 343 342 343 344 344 344 343 342 342 341 339 338 335 334 335 335 335 335 334 333 331 332 331 330 329 329 331 332 332 330 329 330 330 330 329 329 328 328 328 328 330 328 325 323 322 322 323 324 324 324 325 325 326 328 332 333 334 334 334 334 334 335 334 332 333 332 332 331
337 340 339 339 340 341 342 341 341 342 342 342 342 340 332 333 338 339 340 341 342 342 340 338 337 336 335 334 330 329 327 328 327 329 330 333 330 328 331 330 329 329 329 330 331 331 330 329 329 329 328 327 327 326 326 326 327 328 325 324 321 319 320 321 322 324 324 324 326 327 330 333 334 334 335 334 334 334 333 332 332 332 331 331 331
337 336 338 337 338 339 340 341 341 341 342 342 342 342 337 328 331 332 334 337 336 336 336 330 328 326 328 326 328 332 330 329 329 327 323 325 323 325 329 330 329 328 328 329 331 330 330 328 327 326 325 324 322 322 322 324 325 326 324 321 318 318 318 318 319 320 323 324 325 328 331 334 334 335 334 333 335 333 333 331 331 331 331 330 329
332 333 335 338 336 336 337 337 337 341 342 342 342 342 338 335 340 337 337 333 329 327 331 335 333 334 324 329 334 331 330 329 329 328 324 324 324 324 327 330 329 328 327 329 329 329 328 327 326 325 324 323 320 315 315 317 319 320 319 317 317 316 316 316 316 316 317 321 325 328 331 330 333 333 333 332 334 332 331 329 330 330 330 328 327
329 331 333 336 337 337 337 337 336 338 341 340 341 341 341 340 340 341 339 331 333 333 336 336 338 336 334 335 334 334 331 329 328 327 325 321 324 323 326 328 328 327 326 327 327 327 326 326 325 324 324 323 317 315 314 311 311 313 313 314 314 315 315 315 313 312 313 315 319 328 329 331 330 332 334 333 332 330 329 330 329 328 328 327 325
328 330 330 334 336 336 338 338 337 337 338 338 340 340 340 341 340 340 340 339 336 337 338 339 339 338 337 336 335 335 335 330 326 324 322 322 322 322 323 324 325 324 324 324 325 325 324 324 325 325 322 317 313 310 309 308 308 308 309 311 312 313 312 311 311 310 311 313 316 327 328 330 331 331 332 331 331 330 329 329 328 327 326 324 322
325 328 328 332 333 334 336 337 338 338 338 339 339 338 340 339 338 339 338 339 338 338 338 337 338 338 338 335 335 334 335 329 327 325 323 322 321 321 321 321 320 319 319 318 318 319 318 318 318 315 313 312 310 309 307 305 304 305 306 307 310 311 311 310 310 309 309 310 314 322 327 328 329 330 331 331 330 328 327 328 327 325 323 322 322
327 325 326 328 330 332 334 334 336 338 338 339 339 338 339 338 338 339 338 339 339 337 336 335 336 338 337 335 334 335 334 330 328 327 324 322 321 320 320 319 319 318 317 316 316 316 316 317 316 314 311 308 307 307 306 304 302 302 303 305 306 308 308 308 308 308 308 308 311 318 323 325 326 327 329 330 329 327 327 326 325 323 322 320 320
326 325 326 327 329 331 332 333 333 333 335 338 340 338 339 338 338 339 339 337 338 337 336 336 336 338 337 334 333 334 333 332 329 328 325 322 320 320 319 319 319 318 317 317 317 318 317 316 315 312 309 307 307 306 304 303 302 301 302 302 303 304 306 306 307 306 306 306 309 316 319 323 323 324 324 326 327 326 325 323 323 322 321 320 319
326 326 326 326 326 328 329 331 331 332 332 334 336 338 337 336 337 337 338 336 337 337 336 337 337 336 334 334 332 333 333 332 330 330 326 324 321 321 321 320 319 319 318 319 320 317 316 314 312 310 308 307 306 305 303 301 300 299 300 300 300 301 303 305 305 305 304 304 306 311 316 319 321 320 322 324 324 324 322 320 320 322 321 320 318
326 326 325 326 327 328 328 331 331 332 333 334 333 333 335 334 335 336 336 334 337 337 336 337 337 335 335 336 335 334 332 332 331 331 329 325 324 324 322 321 320 319 319 320 320 316 315 313 312 309 306 305 304 303 301 299 297 297 297 297 298 299 301 303 303 304 304 303 303 307 312 317 317 318 319 320 321 322 322 322 321 321 319 318 317
325 325 325 325 327 328 328 329 329 330 331 333 331 330 330 332 333 334 335 334 336 337 336 336 336 334 335 335 334 333 332 332 332 332 330 328 327 328 324 322 322 321 320 320 318 316 314 313 311 308 305 303 302 301 299 298 297 296 295 295 295 295 296 298 300 302 302 302 302 302 308 311 315 316 316 317 318 318 319 320 321 319 319 319 317
324 324 325 326 325 326 327 329 329 328 328 329 330 330 330 329 331 333 334 333 332 335 336 335 335 335 335 335 335 334 333 332 332 331 331 330 330 328 325 325 323 323 322 319 318 316 314 312 309 307 305 303 302 300 299 297 296 295 295 294 294 294 294 295 296 299 300 300 300 300 301 307 310 314 314 315 316 316 316 318 319 319 319 319 317
323 323 325 326 324 325 326 327 329 328 326 327 326 328 329 329 329 333 332 332 331 331 333 335 333 335 334 333 333 333 330 331 331 330 330 330 329 327 325 324 322 322 321 319 317 315 312 310 308 306 304 303 301 300 298 296 294 295 294 294 293 293 293 293 293 294 296 297 297 297 298 299 304 307 312 314 314 314 315 315 315 317 318 317 317
321 324 325 325 324 324 325 325 326 325 324 324 324 324 325 327 328 331 331 331 331 333 333 334 334 334 333 332 333 334 332 332 330 330 327 329 329 327 324 323 322 321 319 318 317 314 310 308 306 304 303 301 300 299 299 296 294 293 293 293 293 292 293 293 293 293 293 293 293 293 294 295 295 300 304 310 312 312 313 313 313 313 314 315 315
319 319 323 324 325 325 324 324 323 322 321 322 322 322 324 324 325 330 330 330 330 332 332 333 335 335 334 332 334 334 332 333 331 328 328 327 326 325 323 322 322 320 318 316 314 311 308 306 303 302 302 299 297 297 296 295 294 293 292 293 292 292 292 292 291 291 291 291 291 291 290 291 291 292 294 302 307 310 311 311 311 311 311 312 312
317 318 320 322 322 321 322 322 320 319 319 320 319 320 321 323 323 325 329 329 328 330 331 333 332 334 334 334 334 333 333 332 331 329 329 327 325 323 322 322 321 318 316 314 312 310 308 305 303 300 299 298 297 296 295 294 294 292 291 291 291 291 291 291 291 291 290 290 290 290 289 288 288 289 290 291 298 304 308 309 309 309 309 310 311
317 317 318 319 318 317 317 316 316 317 316 316 316 316 317 320 323 322 327 327 326 328 327 327 331 331 332 332 334 333 332 331 330 329 327 325 324 323 322 320 318 317 315 312 310 308 307 306 303 300 297 295 294 294 295 293 292 291 290 290 290 291 290 290 290 290 290 289 289 289 289 289 288 288 290 288 290 297 302 305 307 307 307 308 309
316 316 317 317 316 315 315 315 315 315 315 316 315 314 315 315 320 323 325 325 324 324 324 325 324 329 330 330 331 330 328 327 330 329 327 324 322 321 319 318 317 316 313 311 309 307 306 303 301 299 297 295 294 294 294 293 292 291 290 290 290 290 289 290 290 290 291 288 288 288 289 289 291 293 287 286 288 290 296 300 303 304 305 306 308
316 316 316 316 315 315 315 314 315 316 316 317 316 316 316 318 319 318 317 322 322 321 322 322 323 322 328 329 330 328 326 323 324 325 322 320 319 318 317 317 316 315 312 311 309 308 305 301 299 298 297 296 294 293 293 292 292 291 289 289 289 288 288 288 290 291 288 288 287 287 288 288 288 288 288 288 288 288 289 293 296 299 302 304 305
316 316 316 316 315 314 314 313 315 315 316 317 316 317 318 317 318 316 313 312 313 317 320 321 322 321 319 327 327 326 325 322 320 319 318 317 316 315 315 315 315 313 311 310 308 306 304 304 299 297 297 296 295 294 293 292 291 290 289 289 289 288 289 289 288 287 287 288 289 290 289 288 288 288 288 288 287 287 287 286 285 286 292 301 303
314 315 315 315 314 314 314 313 314 316 315 315 316 314 315 313 314 313 312 309 310 309 317 320 320 318 315 315 322 324 324 321 319 318 316 315 314 314 314 314 314 312 310 308 306 304 302 302 300 296 295 295 295 294 293 290 289 288 288 287 288 288 288 288 288 287 287 287 286 287 287 288 288 288 288 288 287 286 286 285 287 285 286 292 296
313 313 314 314 314 314 313 312 313 315 314 313 313 313 313 310 311 313 312 312 313 312 312 314 316 316 313 313 315 316 319 319 317 315 314 312 313 313 313 312 313 311 310 308 307 304 302 300 298 296 294 292 292 293 292 290 287 285 286 285 286 287 289 287 287 287 287 286 286 286 286 287 287 287 287 287 286 286 285 285 285 285 285 284 288
311 312 313 313 314 313 313 312 313 315 314 313 312 313 313 312 311 312 312 313 314 312 311 308 312 312 312 311 310 313 314 316 315 314 312 313 312 312 312 312 311 310 309 308 306 303 302 300 298 295 295 293 291 292 291 289 286 283 282 283 283 284 286 286 286 286 287 287 287 287 287 287 286 286 287 286 285 285 285 285 285 285 284 284 285
310 311 311 312 312 312 313 313 313 314 313 312 311 311 311 311 312 310 312 311 314 314 313 308 307 309 309 310 310 312 313 313 313 312 312 311 311 311 311 311 311 309 308 306 305 303 302 300 298 296 294 294 292 292 290 290 285 284 283 282 279 280 285 283 284 285 287 286 286 287 288 287 287 286 286 286 285 285 286 285 285 284 284 284 284
308 308 310 311 312 311 312 312 312 313 312 311 310 311 311 311 313 310 312 308 304 305 306 305 304 305 306 306 306 309 311 310 310 310 311 310 310 310 311 311 311 309 308 305 303 302 301 299 298 297 295 291 291 290 291 291 287 285 281 282 280 280 277 280 280 284 285 285 286 286 287 286 286 286 286 285 285 285 284 285 285 285 285 284 284
307 308 309 310 312 311 311 312 311 311 311 309 310 311 310 307 304 302 302 302 301 302 303 302 304 304 303 303 303 305 308 308 308 309 309 309 310 310 310 310 310 309 308 305 303 302 301 299 298 297 295 292 290 290 290 290 288 288 286 283 280 281 279 279 280 281 283 283 285 285 286 286 285 286 285 285 285 285 285 284 285 284 285 284 284
306 308 309 310 310 310 310 311 310 310 310 310 310 311 308 306 303 303 301 300 300 300 303 304 302 302 302 301 301 302 305 306 307 308 308 308 309 310 309 309 309 309 308 306 304 302 300 299 299 298 296 295 292 290 288 289 289 288 291 288 285 281 280 279 279 276 282 282 284 284 284 285 285 285 286 285 285 285 285 285 285 285 285 284 284
305 307 308 309 309 310 310 311 310 309 309 309 310 309 308 307 305 306 305 304 303 302 305 305 304 303 303 300 300 299 302 304 304 306 307 307 309 309 309 309 309 308 306 306 304 302 301 300 300 299 298 296 293 290 289 289 289 290 292 290 289 289 283 281 278 277 276 281 282 282 283 285 285 285 286 285 285 284 285 285 285 285 285 284 283
306 308 308 309 309 309 309 310 309 308 309 309 310 308 307 307 307 306 306 305 305 303 304 303 303 302 302 301 298 298 298 301 303 304 305 306 308 308 309 309 308 308 306 306 304 303 302 302 301 300 299 297 294 292 290 290 290 289 290 289 287 285 284 284 283 279 278 278 278 282 282 284 285 285 285 285 285 284 285 285 285 284 282 283 282
306 308 308 308 308 308 308 309 308 307 308 308 307 306 307 307 307 307 306 307 306 303 303 303 302 301 301 299 297 297 297 297 300 302 303 305 305 307 308 308 308 308 305 307 305 304 302 302 301 299 298 297 296 295 293 291 290 289 289 288 287 284 285 287 284 283 278 277 277 278 279 282 283 283 284 284 285 285 285 285 284 283 283 283 282
306 308 308 308 308 307 307 308 307 306 307 307 305 305 306 306 307 307 307 308 308 305 304 302 301 300 301 297 297 296 295 295 297 298 300 303 304 306 307 307 308 308 305 307 306 305 304 303 301 300 299 297 297 296 294 291 291 290 289 288 287 286 285 284 283 283 281 280 278 278 280 280 279 281 284 284 285 285 284 284 282 282 282 282 281
305 307 307 307 307 307 306 306 306 305 306 305 304 304 305 306 307 307 308 308 308 305 303 301 300 299 300 297 296 295 295 295 295 296 298 299 301 303 305 307 308 307 305 307 307 306 304 304 302 300 299 297 296 296 294 291 291 290 290 288 288 288 284 282 284 284 281 279 279 278 280 280 280 279 282 284 284 284 283 282 282 283 282 282 281
Wind_Speed
4 8 7 9 8 6 4 7 10 10 10 11 10 10 9 10 11 11 11 11 12 12 13 13 14 14 15 15 16 16 16 15 15 15 14 15 15 13 13 13 14 14 15 15 16 16 17 19 20 21 21 21 21 21 21 21 21 21 21 20 20 20 21 20 21 23 23 24 24 24 24 23 23 23 23 24 24 23 21 21 18 14 11 16 21
9 7 6 6 9 6 5 9 9 9 10 10 10 10 10 10 11 11 11 10 11 12 12 13 13 14 15 15 16 16 16 15 14 14 14 15 15 14 13 13 14 15 16 15 16 17 17 17 19 19 19 21 20 20 20 20 20 19 18 17 16 15 14 14 16 17 19 21 23 23 23 25 23 24 23 23 24 23 21 22 22 13 11 22 24
9 8 7 7 8 8 6 9 9 10 8 10 10 10 10 10 10 11 11 12 11 12 12 13 13 14 14 14 15 15 15 15 14 14 14 15 15 15 13 13 14 15 15 15 16 16 17 17 18 18 19 20 20 20 20 19 18 17 17 16 16 14 13 16 13 14 18 19 18 18 19 23 24 24 23 23 24 24 21 23 23 21 16 27 23
10 7 7 6 7 5 2 8 10 9 7 9 10 9 9 9 10 11 12 12 12 12 12 12 13 14 14 14 15 15 15 15 14 14 14 15 15 15 13 13 14 14 16 17 17 17 18 19 20 20 20 20 20 20 19 17 17 16 16 16 15 14 13 12 18 17 17 18 17 13 9 8 14 23 23 23 24 24 21 22 24 25 26 25 27
11 8 7 6 5 4 5 10 11 9 8 10 10 9 10 9 9 11 12 11 12 13 12 12 13 14 14 14 15 15 15 14 14 14 14 14 15 15 15 14 14 15 16 17 18 19 19 20 20 19 19 19 20 20 18 16 15 15 15 14 13 12 10 9 14 18 17 18 16 13 10 9 8 20 22 24 24 22 21 22 23 25 24 26 26
9 8 8 7 6 5 8 10 11 10 9 9 10 11 10 10 9 11 12 12 12 12 12 13 13 14 14 14 14 14 14 15 14 14 14 14 14 15 15 14 16 17 17 17 18 18 20 20 19 19 19 19 18 18 16 15 15 15 15 14 14 15 17 13 8 17 17 17 15 9 10 9 8 11 23 23 23 22 22 25 23 24 24 25 26
9 8 8 8 6 7 9 11 11 10 10 10 10 10 11 8 10 11 11 12 12 12 12 12 13 14 14 14 14 14 14 15 14 14 14 14 14 15 14 15 15 15 16 17 18 18 19 19 19 19 20 19 19 18 15 15 15 15 15 14 14 16 22 20 19 16 14 10 7 7 8 9 8 8 21 21 22 23 23 22 24 24 24 23 23
5 6 7 7 6 7 9 10 10 11 11 10 10 10 10 10 10 10 11 11 11 11 12 12 13 14 14 14 14 14 15 15 15 14 15 14 14 15 14 14 16 16 16 16 16 18 19 19 19 19 19 19 19 17 15 14 14 14 14 14 14 13 17 18 17 15 13 8 6 7 7 8 8 7 20 21 20 21 21 22 22 23 24 24 17
5 6 7 8 7 9 8 9 11 11 11 10 10 8 8 10 10 10 11 11 11 11 11 12 13 13 14 14 14 14 15 15 15 15 14 14 13 14 15 17 17 18 17 18 18 19 19 19 19 19 19 19 19 16 15 15 15 15 16 15 14 13 16 15 13 14 11 9 8 6 7 6 6 7 18 21 21 21 20 15 17 21 22 19 20
5 6 8 7 7 9 7 9 10 11 11 11 10 9 9 9 9 10 11 11 10 11 11 12 13 13 13 14 14 14 14 14 15 14 14 14 14 13 13 13 12 16 17 17 17 18 18 18 19 19 19 19 17 15 15 15 15 16 16 16 15 16 18 15 16 13 10 10 11 11 11 12 8 9 16 20 22 21 16 15 16 17 17 21 24
6 9 7 8 8 10 9 10 8 9 11 11 10 10 9 9 9 9 10 11 11 11 11 12 13 13 13 13 13 13 14 14 14 14 14 14 14 14 14 14 14 14 15 15 17 17 18 18 18 18 19 18 16 15 14 15 15 16 16 15 16 18 16 13 11 9 11 12 11 10 12 15 9 8 19 21 23 23 21 21 22 21 23 24 24
7 7 8 7 9 10 9 8 9 10 11 11 11 10 10 9 9 9 10 10 11 11 11 12 12 13 13 13 13 13 14 14 14 14 14 14 14 14 15 15 14 15 15 15 15 15 16 17 18 18 18 17 15 14 15 15 15 15 15 15 16 15 16 15 9 8 8 10 11 11 10 10 9 14 23 23 24 23 22 23 23 25 25 24 25
6 9 9 8 6 8 8 8 7 9 10 11 12 11 10 10 10 9 9 10 11 11 11 12 12 12 13 13 13 13 13 14 15 15 14 14 14 15 15 15 15 15 15 15 15 15 16 17 17 17 17 17 14 14 14 15 15 15 15 13 13 16 15 14 9 10 10 9 8 9 9 8 10 18 22 22 24 23 23 24 24 25 26 25 25
5 9 8 8 6 8 9 8 8 7 8 9 11 11 10 10 10 10 9 9 10 11 11 12 12 13 13 13 13 13 13 13 14 14 15 14 14 14 16 16 16 16 16 15 15 15 16 17 17 17 17 16 15 15 15 15 15 14 13 13 11 13 13 11 10 8 9 9 8 8 7 7 8 20 22 21 24 23 23 23 23 25 26 26 26
6 7 7 8 7 6 9 8 8 7 4 6 8 10 11 10 11 10 9 9 10 10 11 11 12 13 13 13 13 13 13 13 14 14 14 14 15 15 15 16 16 16 15 15 15 15 15 16 16 17 16 15 15 15 15 14 15 16 16 13 17 16 14 8 7 8 8 8 7 7 6 7 17 20 20 21 23 23 23 24 24 26 26 25 25
3 7 8 9 7 6 5 6 8 7 5 6 6 7 10 10 10 11 10 9 10 10 10 11 12 12 13 13 12 13 13 13 14 14 14 14 15 15 16 16 16 16 16 16 15 15 16 16 17 16 16 16 16 15 14 15 16 16 15 12 11 12 12 8 7 7 7 6 5 4 4 6 19 19 20 21 21 21 23 24 24 25 25 26 27
6 6 5 6 9 7 6 5 6 8 6 6 6 6 7 8 8 9 9 9 8 9 10 11 12 13 13 13 12 11 12 13 14 14 14 14 15 15 15 16 16 16 17 17 17 17 17 17 17 17 16 16 15 15 15 15 15 15 13 18 18 18 16 12 8 8 8 8 6 6 7 8 17 20 21 21 22 22 22 23 24 25 26 27 27
4 4 5 3 5 6 7 6 6 5 5 5 6 7 7 8 7 9 7 9 9 9 9 9 11 11 11 11 11 10 11 13 13 14 14 14 13 13 16 16 16 17 17 17 18 17 17 17 17 16 16 15 15 15 14 14 13 12 13 18 18 17 14 12 8 8 8 7 7 6 6 14 19 19 21 22 23 24 24 24 25 26 27 27 27
2 3 5 5 2 2 5 6 6 4 5 4 4 5 7 7 9 9 8 8 8 8 9 8 9 10 11 12 11 10 10 12 13 12 11 11 12 13 15 16 17 17 17 18 18 18 17 17 17 16 16 16 15 14 13 13 13 13 16 16 16 15 15 10 8 8 7 7 6 6 7 15 18 20 21 22 23 24 25 26 25 26 28 27 26
0 2 4 4 4 1 1 4 5 5 5 4 5 5 5 7 8 10 10 7 8 9 10 10 10 10 10 13 13 10 10 10 13 11 12 12 11 10 12 14 17 17 17 18 18 18 17 17 16 16 16 15 14 13 14 15 14 11 18 17 16 14 9 7 8 8 7 6 5 5 9 16 21 21 23 24 24 24 23 23 25 28 25 25 27
2 2 4 4 5 5 2 3 4 5 5 5 5 6 6 7 6 9 10 9 7 8 9 11 11 10 10 11 12 9 7 7 7 7 10 9 11 12 12 14 16 16 17 17 17 17 17 17 17 17 17 15 12 12 14 15 14 12 17 15 14 9 8 8 8 7 6 6 6 6 14 17 22 24 24 24 25 25 25 24 26 26 26 27 28
5 4 3 6 5 4 5 3 2 3 4 4 3 5 5 6 6 6 6 7 7 8 8 7 7 6 9 9 6 7 7 6 6 7 7 9 10 12 12 13 15 15 16 17 17 18 18 18 18 17 16 13 11 7 8 11 15 15 14 14 9 7 7 8 8 8 8 6 6 10 17 20 22 23 24 24 25 25 24 25 26 27 28 28 28
5 5 5 6 6 5 4 5 3 3 2 3 3 5 6 5 6 7 6 7 7 6 5 7 6 7 7 5 5 6 6 6 6 7 6 9 12 13 12 12 13 13 15 17 17 18 17 17 16 15 12 8 6 5 6 7 8 12 11 9 7 8 8 8 8 7 8 7 5 14 18 20 21 22 23 25 23 23 23 26 28 28 27 27 26
8 7 6 5 6 6 7 6 6 5 4 4 3 4 5 5 5 5 6 6 6 6 6 6 6 7 7 5 5 4 5 6 8 12 10 7 9 13 14 12 12 12 14 10 13 14 15 15 13 10 6 5 6 7 7 6 7 7 7 7 7 7 8 7 7 7 8 9 8 15 19 21 22 23 22 23 23 23 25 27 27 27 26 26 25
5 7 6 8 8 8 7 7 7 6 6 5 4 5 5 5 5 5 6 6 6 6 5 6 6 7 7 6 6 5 5 7 8 7 6 6 6 8 8 7 7 6 9 7 6 6 5 4 3 4 6 6 6 6 7 7 6 6 7 7 7 7 7 7 7 8 8 8 11 14 16 20 23 23 22 23 24 23 24 26 26 26 25 25 25
5 6 7 7 8 8 7 6 7 8 7 6 6 6 6 6 5 5 5 6 6 6 6 5 4 7 7 5 6 7 6 7 8 7 7 7 7 6 7 7 6 6 5 7 5 4 3 3 5 6 6 7 8 7 7 7 6 7 6 7 7 7 7 7 7 8 8 8 11 19 14 15 18 20 23 24 25 24 23 25 25 24 23 22 23
7 7 7 6 8 8 7 7 6 6 7 6 6 7 6 6 5 5 6 6 6 6 6 6 7 7 6 5 4 6 7 7 8 8 8 7 7 6 7 7 7 6 5 6 5 4 4 6 6 6 6 7 8 7 7 7 6 7 7 7 7 7 7 7 7 7 7 8 12 21 20 16 17 17 18 20 21 23 23 23 23 23 23 23 23
8 6 7 6 7 9 7 8 6 5 5 6 6 7 6 6 7 7 6 6 6 6 6 7 8 7 5 4 6 7 7 7 8 8 9 7 7 7 7 7 7 6 6 5 4 5 5 6 7 6 6 6 7 7 6 6 7 7 7 7 7 7 6 6 7 7 7 8 9 16 18 18 15 18 18 17 18 20 21 18 19 20 21 21 21
8 7 7 8 9 9 6 8 8 8 6 7 6 6 7 6 5 6 6 7 6 6 7 6 6 7 7 7 6 7 6 7 8 7 8 8 7 7 7 7 6 7 6 5 5 6 6 6 6 5 5 6 6 7 7 6 6 6 7 7 6 7 7 7 7 7 7 7 8 13 20 17 17 16 16 17 18 19 19 20 21 21 20 20 20
8 7 7 7 9 9 10 11 9 9 8 8 6 5 6 7 6 6 5 5 6 7 5 6 6 6 7 5 6 5 8 7 8 7 8 8 8 7 8 7 7 7 6 5 6 6 7 6 6 6 5 6 7 7 7 6 6 6 6 7 6 6 6 6 7 7 7 7 8 10 19 20 17 17 16 16 16 17 18 18 18 18 18 19 19
8 9 8 6 9 10 10 10 9 8 7 8 7 6 4 5 7 6 6 5 3 6 7 6 6 5 6 8 7 7 7 7 7 8 7 8 8 7 7 6 5 5 5 6 6 6 5 6 7 7 6 7 7 6 7 6 6 6 6 7 6 6 6 6 6 6 7 7 7 7 11 18 21 16 16 16 16 15 15 17 18 17 17 18 18
9 10 9 7 8 10 9 9 10 8 7 7 6 8 8 6 6 7 7 5 5 3 6 6 6 6 6 7 5 7 5 5 7 8 6 8 8 8 8 8 6 5 6 7 7 6 5 5 6 7 6 7 7 6 6 6 6 6 6 7 6 7 6 6 6 6 7 7 6 7 7 9 17 20 17 16 16 17 16 14 15 17 16 16 17
5 7 8 8 9 9 9 9 8 7 7 7 6 5 5 5 6 7 7 6 6 5 4 6 6 6 6 7 7 5 7 7 6 9 7 7 8 8 8 8 7 7 7 8 8 7 6 6 7 7 7 7 8 8 6 6 6 6 6 6 6 6 5 6 6 6 6 5 6 6 7 7 8 13 19 20 16 16 15 15 15 15 15 15 15
7 6 7 10 8 6 7 7 7 7 7 5 4 5 5 4 4 6 7 7 6 6 5 4 6 7 7 8 8 8 8 7 6 6 7 7 6 8 9 7 6 8 8 9 8 7 7 7 8 7 7 8 8 7 7 6 5 6 6 5 6 6 6 6 6 6 6 5 5 5 6 6 7 7 8 17 20 15 16 16 15 13 14 14 14
7 7 10 9 8 7 7 6 7 6 8 7 6 6 5 5 6 4 7 7 7 6 5 4 4 6 7 7 8 8 9 7 7 7 8 8 7 7 8 8 7 7 8 8 9 7 7 7 7 8 7 7 7 7 7 6 6 7 6 6 6 6 6 6 6 6 6 6 6 5 6 6 6 6 7 7 10 18 18 16 14 12 11 13 14
11 10 9 8 9 7 7 6 7 7 7 8 6 6 5 6 6 5 7 7 6 6 5 4 4 5 6 7 8 8 8 7 8 8 7 7 8 8 8 7 9 8 7 8 10 10 8 6 5 8 10 7 8 8 7 7 6 6 6 7 6 6 6 6 6 6 6 7 6 5 6 6 6 7 7 7 7 11 21 17 14 12 12 12 12
10 10 11 9 9 8 9 8 9 8 6 6 5 5 4 4 5 6 7 8 7 7 6 4 2 4 5 6 7 7 6 6 8 10 8 8 7 7 7 9 8 9 10 8 9 10 10 9 7 4 8 10 9 10 7 7 6 6 7 6 5 6 6 6 6 5 5 6 4 4 4 5 5 6 4 6 7 7 13 18 15 13 13 13 13
9 10 10 12 11 10 9 8 7 8 7 8 7 6 5 6 5 5 5 7 6 6 6 5 5 4 5 6 6 6 6 5 6 7 7 8 8 8 7 9 9 8 9 9 8 7 8 9 10 6 7 10 9 10 9 7 6 6 7 7 6 6 5 5 5 5 6 5 5 5 4 5 6 6 7 7 6 6 6 10 14 14 13 13 13
9 10 10 9 8 8 8 8 8 8 7 7 6 6 6 4 5 5 4 3 3 5 6 6 4 4 3 6 8 7 6 6 6 6 7 7 7 8 9 9 9 9 9 9 9 8 7 5 9 9 6 6 9 9 10 8 8 7 7 6 5 5 6 6 6 6 6 4 4 4 5 6 6 6 7 6 6 6 5 4 4 4 7 14 13
9 9 10 10 10 8 8 8 8 8 6 6 7 6 5 6 6 4 4 3 2 3 4 5 5 5 4 2 7 8 8 7 7 7 8 8 8 8 9 9 9 10 11 10 9 10 11 9 7 10 10 8 7 9 10 10 8 8 7 6 5 5 5 5 5 4 3 4 4 5 6 5 6 6 6 5 6 5 5 4 3 3 3 8 12
8 9 10 10 11 11 11 11 9 8 8 8 7 8 7 5 4 6 6 4 4 3 4 5 5 5 5 3 3 7 7 8 8 8 8 8 8 8 9 8 8 9 11 13 13 13 11 10 11 7 12 12 9 9 9 11 11 7 7 5 5 4 4 4 4 4 4 4 5 5 5 6 6 6 5 6 5 4 4 4 4 3 4 3 6
10 11 12 12 11 10 12 10 9 9 9 9 8 8 7 7 7 6 5 6 6 7 7 5 6 5 5 4 3 4 6 7 8 8 9 10 9 9 9 10 9 8 7 8 8 9 11 10 9 8 4 11 10 11 10 11 4 8 8 5 4 4 4 5 4 4 4 4 4 4 4 5 6 5 5 6 4 3 3 3 3 4 3 4 4
10 11 10 8 9 10 10 9 10 10 9 9 9 9 5 4 5 4 6 5 5 5 4 4 4 5 4 4 3 4 6 6 7 8 9 9 10 10 10 10 10 10 9 8 8 10 9 12 11 11 9 4 7 8 11 6 8 6 6 7 3 3 1 2 2 3 3 4 4 4 4 4 4 4 5 5 4 3 3 3 3 3 3 4 4
6 6 7 9 9 8 8 10 10 9 8 10 9 6 6 4 4 4 6 6 5 4 4 4 4 4 5 4 3 4 5 6 7 8 7 9 10 11 10 10 10 10 11 12 11 11 10 10 10 8 10 11 7 8 7 5 10 13 6 3 5 5 3 3 3 1 3 3 4 3 3 3 3 4 5 5 4 4 3 3 3 3 3 3 3
8 9 9 9 8 9 8 9 8 9 7 9 10 8 7 6 5 7 7 7 5 5 5 4 6 5 4 4 5 4 5 6 7 8 9 10 9 10 11 11 11 11 10 11 12 14 13 13 13 11 11 13 10 7 9 4 10 5 7 7 3 1 5 4 6 0 2 2 2 4 4 4 3 3 5 4 4 4 3 3 2 2 2 2 2
8 8 8 8 7 8 8 8 7 7 8 9 10 9 8 9 8 8 8 6 7 8 11 11 8 7 7 3 3 4 5 6 6 7 8 9 10 10 10 11 10 10 10 10 10 11 12 12 12 11 11 10 14 11 10 4 10 7 2 3 7 7 8 6 7 3 1 1 3 3 3 3 4 4 4 4 4 4 3 3 2 1 1 2 2
6 5 6 7 7 8 8 9 8 8 7 8 9 8 8 8 10 9 7 8 9 6 3 4 7 5 5 6 5 3 4 6 5 6 7 8 9 9 9 9 10 9 9 9 9 11 12 12 10 9 8 9 11 12 13 8 7 3 2 2 2 1 11 12 5 5 3 1 3 3 3 2 2 4 5 4 4 4 3 3 3 2 1 1 1
7 7 7 7 9 8 8 9 7 8 7 8 10 9 9 8 8 7 7 7 6 6 5 5 5 6 6 6 5 5 4 4 6 5 6 7 8 9 9 9 9 9 9 9 11 10 9 9 10 10 8 9 12 12 11 8 13 7 4 2 4 6 10 3 9 9 7 8 4 2 2 4 2 3 5 5 5 5 4 4 3 3 2 1 1
7 8 7 7 6 6 7 7 8 8 8 8 9 8 8 9 9 8 8 6 5 6 5 6 6 6 7 5 6 5 4 3 5 5 5 6 6 9 9 9 9 9 9 8 9 10 12 12 10 9 8 8 9 9 10 10 7 7 6 2 5 7 5 1 8 5 5 4 2 6 4 2 2 3 4 4 4 5 5 5 4 4 4 3 2
7 6 6 6 6 6 7 8 6 7 7 8 8 9 8 8 9 10 10 8 7 6 7 7 7 7 7 7 6 6 5 4 4 4 5 6 6 7 8 9 10 10 9 10 10 10 10 10 11 10 9 9 7 9 10 7 6 5 6 6 6 5 3 3 4 3 3 4 8 9 7 9 8 5 4 5 5 5 5 5 4 4 5 5 3
5 6 6 6 6 6 7 7 7 6 7 8 8 9 8 7 9 10 11 10 9 8 8 8 7 7 8 7 7 6 5 5 4 5 5 5 6 6 8 8 8 8 9 9 10 11 10 9 9 8 9 10 8 8 8 7 6 7 7 7 8 9 8 6 8 5 4 3 4 4 4 7 6 4 6 6 6 5 5 5 5 5 5 5 4
Wind_Direction
155 135 131 145 141 149 155 148 126 124 119 113 109 114 114 110 107 105 101 102 103 98 94 88 83 78 75 73 69 70 72 69 69 70 71 73 74 76 76 81 79 80 82 80 76 75 68 66 67 70 71 70 69 68 65 62 65 69 71 71 72 74 76 78 79 72 69 66 63 62 65 65 63 62 62 61 60 60 58 57 54 52 51 51 52
151 134 133 138 142 146 169 140 130 123 115 115 122 124 121 112 110 108 107 104 103 98 93 89 82 77 76 73 72 72 74 73 73 73 73 75 77 80 81 81 82 84 83 77 77 75 71 69 71 71 70 71 71 69 66 64 67 70 68 66 63 64 68 76 81 78 73 70 68 65 64 63 64 64 63 62 62 62 61 60 58 56 56 58 56
137 141 129 134 132 141 153 136 131 109 116 122 124 125 122 118 113 112 111 108 101 98 92 88 83 79 77 74 74 73 75 76 76 75 75 78 80 81 83 87 91 88 84 81 78 76 76 76 77 73 70 69 68 67 66 65 64 64 63 60 56 50 49 68 73 73 74 69 67 66 64 64 63 63 65 64 63 62 62 62 61 60 60 60 59
136 132 119 121 116 117 89 127 113 116 128 120 114 116 115 110 112 113 109 106 103 98 97 90 83 81 78 76 76 76 76 77 77 76 75 79 82 82 81 86 87 84 84 86 86 84 81 81 76 73 71 70 71 69 67 67 67 65 62 56 50 45 46 56 71 67 68 68 63 56 56 56 64 64 64 65 65 65 63 63 63 62 61 60 61
126 125 127 132 122 105 122 118 124 131 140 125 121 117 112 112 116 113 110 108 106 103 100 93 87 82 79 79 77 77 78 78 78 76 75 77 84 87 88 85 89 92 89 83 81 83 81 74 74 75 74 73 70 69 70 72 67 61 55 50 45 44 45 51 75 73 68 66 63 58 52 45 55 67 67 67 66 64 65 65 65 63 62 61 61
127 131 140 138 130 125 129 129 132 138 136 127 128 127 123 122 120 116 111 109 107 103 98 96 91 84 82 81 80 80 81 80 80 78 75 76 81 85 86 91 86 83 84 84 84 83 79 78 77 77 77 75 74 72 72 69 63 55 49 44 40 45 59 70 78 80 74 72 67 65 61 53 48 61 68 68 68 68 68 67 65 64 64 64 63
129 142 142 133 131 133 139 138 134 134 132 128 130 127 123 125 125 114 113 110 107 106 103 99 92 88 87 84 83 84 84 85 84 81 78 77 77 83 82 84 89 95 92 89 85 82 81 83 83 81 80 78 76 74 72 68 62 51 41 34 33 53 59 57 62 65 71 79 75 72 72 67 61 65 66 66 67 67 66 67 67 67 66 65 64
120 128 130 126 119 136 142 134 134 132 135 133 127 126 136 135 119 115 113 113 110 108 105 101 95 92 88 86 85 84 86 87 85 83 81 80 78 86 93 87 86 85 84 84 87 85 83 81 83 82 81 79 77 75 74 66 57 50 42 36 38 48 70 72 68 61 57 62 72 76 77 73 67 68 73 72 69 68 66 67 67 68 67 65 62
128 131 111 110 123 132 132 129 133 133 133 133 126 131 133 126 125 121 119 115 112 108 107 103 99 95 91 89 88 88 88 89 89 86 83 83 81 86 89 92 94 90 88 87 86 86 85 82 80 79 78 77 74 75 73 62 53 43 37 35 37 64 75 68 67 62 57 53 47 52 66 69 70 73 73 73 73 74 75 70 68 69 70 69 66
140 106 112 115 127 129 129 135 134 134 132 128 130 139 139 129 131 126 121 119 116 114 111 109 106 100 95 93 92 91 91 91 91 92 90 86 87 85 87 88 88 96 96 90 86 85 85 84 81 80 79 76 75 74 72 62 49 40 34 39 44 66 70 65 66 67 63 55 50 44 42 49 40 53 71 78 76 72 70 66 66 63 58 63 66
147 129 117 116 127 129 139 136 133 135 136 136 142 141 143 135 128 129 128 125 122 120 117 115 110 104 100 96 95 95 95 95 94 94 94 93 91 89 88 83 82 80 81 85 85 85 84 85 86 83 81 79 79 75 64 55 47 40 37 38 52 65 66 67 71 72 70 65 60 52 47 53 55 61 76 74 74 68 65 68 71 72 71 69 69
146 119 111 116 125 125 130 126 138 139 139 143 142 144 143 137 133 131 134 131 129 125 122 119 114 109 105 101 99 99 100 100 99 97 95 95 94 93 92 94 92 86 84 89 90 92 93 92 88 86 83 83 81 71 61 51 44 39 39 40 57 58 59 53 50 54 67 77 72 67 59 56 65 70 73 75 77 77 74 72 71 73 72 69 69
140 114 116 125 121 119 118 118 126 141 144 146 146 148 146 139 136 136 140 140 135 129 127 124 119 114 108 104 102 101 102 103 103 101 98 99 99 98 98 95 92 91 90 92 92 92 93 93 90 89 89 87 76 69 61 54 48 41 38 42 54 66 61 56 57 58 57 57 70 75 70 66 66 70 71 72 76 77 74 72 71 70 69 68 65
135 124 132 131 124 117 113 110 113 128 146 147 150 151 148 144 140 141 148 145 139 133 132 130 126 120 114 108 106 105 104 104 103 102 101 100 100 97 95 93 91 90 89 90 93 94 94 94 95 95 93 87 75 67 60 52 47 44 42 53 65 77 66 61 59 62 60 60 59 63 74 79 77 76 74 74 75 73 73 73 71 69 67 64 62
133 129 134 120 126 120 116 113 111 104 112 144 152 154 151 149 146 146 151 149 144 139 137 135 131 125 117 113 109 108 107 106 104 103 103 103 102 102 99 98 96 94 93 94 97 98 98 96 95 94 92 83 77 71 65 55 44 37 37 39 67 69 71 70 68 72 72 68 63 63 63 68 71 71 72 75 74 72 73 72 72 71 68 65 65
106 119 128 130 134 126 125 119 113 114 111 127 137 153 157 158 153 153 150 148 147 145 142 139 136 131 126 119 115 113 112 109 106 107 106 106 105 103 103 99 98 98 96 95 96 98 99 98 97 95 89 83 81 75 64 53 46 42 41 39 52 68 66 59 51 46 40 38 45 44 38 71 77 79 79 76 76 78 77 76 75 74 72 70 68
91 99 113 129 139 145 138 147 130 123 121 135 130 131 149 159 156 154 150 149 151 148 148 144 141 136 131 125 117 113 112 112 111 109 109 108 107 106 107 106 103 100 97 94 93 96 98 99 98 93 83 83 79 70 62 58 52 48 48 62 63 61 59 57 57 50 48 44 42 40 49 56 66 72 76 78 79 80 80 80 77 78 76 73 68
96 108 112 129 137 153 154 145 142 144 137 130 130 134 142 153 153 153 157 149 152 150 147 144 144 138 124 115 113 114 114 113 110 110 110 109 109 109 108 107 104 101 98 95 93 95 98 99 97 88 83 79 75 69 63 55 51 52 54 61 63 58 55 55 54 51 49 42 38 35 46 73 79 81 79 80 82 83 82 80 79 79 76 70 68
137 140 136 133 148 149 165 148 153 165 150 152 147 135 140 149 152 150 153 147 146 145 138 134 133 131 125 121 113 105 104 104 102 101 98 100 104 106 108 109 108 104 102 100 99 99 100 101 98 88 84 80 75 68 59 49 45 50 58 54 54 56 53 52 54 52 49 48 41 33 57 77 84 83 82 83 84 85 85 84 80 78 73 73 73
194 162 135 145 135 221 185 150 155 170 158 164 153 145 149 149 149 159 152 153 149 144 131 127 129 131 129 121 115 106 100 103 107 108 106 102 100 104 107 110 111 110 108 107 106 106 106 106 96 91 86 80 73 63 53 49 47 46 64 58 52 48 47 45 45 49 52 51 49 54 73 79 81 83 84 83 83 82 81 81 76 70 71 74 75
171 201 141 149 151 169 208 174 171 171 171 165 165 149 157 154 147 157 153 142 142 124 120 125 131 133 133 129 124 118 116 116 107 109 105 105 107 108 112 113 114 114 112 112 110 110 110 105 100 97 91 82 70 60 56 51 48 58 72 63 58 55 52 48 43 38 35 45 51 59 75 81 82 82 84 81 79 77 76 74 75 77 76 73 71
176 184 192 155 152 163 185 185 158 152 163 165 163 150 148 165 152 149 144 139 127 116 134 136 137 138 141 143 136 131 135 125 120 112 116 117 112 111 109 114 115 115 116 115 115 113 112 111 107 102 96 88 77 60 55 51 49 51 60 63 61 59 54 52 47 41 33 22 53 69 72 76 81 82 80 80 78 77 75 75 73 72 69 68 69
179 192 195 181 163 160 176 174 171 151 154 164 184 159 156 177 174 160 148 151 141 142 152 142 151 150 162 166 145 144 144 127 131 132 124 121 118 113 111 114 116 116 117 117 117 117 115 113 111 109 106 102 87 68 50 50 48 46 49 56 61 56 52 49 46 39 36 27 0 72 75 78 80 82 81 79 79 77 75 73 72 71 69 68 68
184 188 186 185 177 182 184 178 171 160 170 183 178 172 155 175 173 164 150 154 153 162 167 162 159 164 171 180 145 145 127 131 120 117 115 114 114 112 114 113 113 115 115 113 114 117 117 117 120 119 106 78 67 64 58 52 54 49 49 54 60 56 52 48 45 40 36 24 14 68 76 77 76 77 80 79 79 78 78 77 76 74 72 70 69
189 169 180 185 184 183 191 188 162 159 169 176 175 188 170 179 176 161 164 161 160 168 164 171 167 173 182 176 150 153 128 126 130 131 128 124 125 122 119 121 121 119 119 117 120 116 105 110 102 76 72 75 68 59 59 53 51 54 55 54 60 59 54 45 43 44 34 23 22 31 82 79 77 77 78 80 80 81 80 78 77 75 74 72 71
192 173 193 176 176 187 190 181 169 167 170 176 182 181 174 177 175 167 161 170 160 170 167 182 214 183 195 163 143 147 144 140 142 144 138 138 136 134 131 131 133 131 139 128 137 141 141 110 83 68 62 74 72 63 63 65 63 60 60 59 61 62 56 48 44 44 33 31 16 25 42 79 77 77 78 77 77 78 81 81 77 75 74 74 72
193 192 177 171 169 194 176 177 188 169 174 184 187 165 177 178 173 171 166 182 165 167 183 179 194 204 178 140 150 155 159 155 154 152 147 151 148 147 143 144 142 143 156 148 160 152 109 93 80 72 72 76 75 70 65 65 64 70 67 64 63 63 60 54 49 46 38 32 25 21 35 54 79 79 77 78 78 79 77 79 80 78 77 75 73
186 182 171 160 168 192 180 172 177 172 182 202 196 160 169 168 181 171 193 191 174 177 185 188 184 189 184 186 172 164 167 165 165 156 155 159 161 154 152 150 148 153 167 174 149 106 95 93 92 86 84 81 86 84 76 69 66 69 74 70 67 66 64 62 61 52 45 43 35 21 30 42 60 82 82 80 80 75 75 76 79 77 76 74 72
174 177 167 160 177 187 182 180 178 186 185 196 210 173 164 176 168 150 185 186 193 182 184 187 177 173 190 186 181 164 169 173 168 162 157 163 164 158 155 156 161 159 170 182 125 115 108 112 109 103 98 94 87 82 77 68 69 70 77 78 76 74 71 68 61 56 53 48 43 29 29 29 58 68 78 84 83 82 81 81 78 78 77 74 73
176 170 169 176 170 177 182 194 185 186 185 184 203 197 173 170 170 166 175 162 186 188 184 179 180 158 180 188 199 181 172 176 168 165 160 161 166 154 157 159 163 167 169 154 124 123 128 127 116 111 101 93 88 83 82 73 66 68 75 82 76 77 77 72 67 62 56 51 43 39 32 31 39 67 64 75 80 85 84 81 82 82 79 80 77
159 177 184 182 166 175 183 187 186 190 187 180 187 197 196 175 169 164 163 178 197 181 185 178 174 183 175 187 185 189 176 175 170 165 168 163 163 155 158 149 137 138 137 120 122 125 130 131 131 123 119 105 97 92 90 85 74 70 77 79 76 74 71 71 77 74 67 56 53 46 37 36 34 41 77 76 76 72 74 83 82 80 83 81 80
174 182 183 177 163 177 180 184 188 191 182 193 183 186 196 197 172 159 163 165 180 198 178 178 181 187 177 174 183 177 178 190 162 167 166 166 165 165 161 155 144 131 120 118 115 114 120 121 122 114 115 109 106 99 92 90 82 81 78 80 76 74 71 74 78 77 74 69 61 57 50 41 37 35 44 78 71 72 74 72 82 87 83 81 81
188 174 173 171 176 177 181 184 184 186 180 190 188 186 195 193 178 161 159 160 176 184 191 184 178 176 177 172 182 176 179 187 182 162 165 171 164 165 163 164 149 139 130 124 116 113 116 122 113 113 114 108 106 105 96 86 86 80 80 79 80 78 78 75 71 74 86 90 84 71 65 50 46 35 35 42 67 77 77 69 67 76 78 86 87
181 180 173 179 177 174 171 176 187 172 178 180 174 181 205 216 202 162 158 161 171 178 187 198 184 181 175 177 181 184 181 183 177 156 155 144 157 161 163 161 151 142 137 132 127 131 133 136 128 121 116 116 113 109 105 95 84 81 78 78 77 79 78 72 71 71 69 69 69 76 80 79 57 48 37 40 42 64 70 70 70 74 85 82 80
174 183 191 180 171 170 170 176 181 172 173 187 187 187 191 204 221 173 161 159 161 169 186 191 193 185 177 176 183 183 178 170 173 160 154 152 153 157 163 161 148 145 142 140 131 128 130 139 136 124 122 114 111 109 108 106 102 93 88 87 89 85 75 80 74 71 66 64 62 57 63 78 75 63 52 49 37 42 56 66 65 68 73 82 85
183 184 183 172 174 169 172 171 175 178 175 182 187 190 190 193 202 190 155 157 161 162 169 192 186 177 181 174 178 181 178 171 167 167 159 154 160 166 165 151 147 140 137 138 134 138 141 133 140 141 130 123 117 112 110 106 96 91 86 81 81 79 75 69 74 74 74 70 67 61 61 72 93 91 79 61 56 51 51 52 61 63 70 77 76
177 176 179 174 174 170 171 170 177 181 173 178 181 186 200 208 209 191 158 156 162 166 168 169 213 204 170 173 169 164 164 165 167 167 158 151 154 158 156 153 148 146 144 145 147 148 147 141 142 151 136 133 127 121 112 103 97 87 82 73 70 78 82 86 80 83 77 83 80 71 61 63 65 74 86 83 75 66 58 55 45 60 65 73 76
177 177 178 177 179 169 174 177 172 182 175 173 177 180 198 212 178 124 119 157 164 160 166 162 196 248 195 173 176 152 153 144 152 153 146 148 152 154 156 155 149 146 145 146 147 148 146 149 141 149 145 132 133 129 121 108 98 89 79 75 70 73 79 79 76 70 75 77 77 79 78 71 67 64 63 61 58 63 68 60 53 39 48 80 77
177 176 172 173 174 167 167 179 172 176 174 164 173 180 195 166 122 131 118 93 140 165 151 168 198 212 278 181 172 159 155 150 144 139 139 139 141 150 155 158 154 148 146 145 140 139 130 140 141 142 133 126 132 129 124 115 100 90 81 70 66 63 65 73 78 79 80 85 89 86 77 66 67 61 61 57 56 57 58 75 84 59 51 66 76
176 175 170 171 177 165 167 175 180 171 161 158 157 172 170 166 148 130 147 148 147 118 144 160 170 198 220 240 162 160 155 155 154 146 141 143 145 154 157 158 158 152 151 151 151 152 155 150 151 149 135 119 112 122 123 113 96 88 83 68 62 69 68 76 80 93 98 92 87 86 83 76 69 66 61 57 58 56 55 53 57 64 54 67 71
176 180 176 178 181 174 166 179 181 169 164 163 168 174 174 172 160 178 189 180 171 159 153 153 176 189 181 211 155 143 142 151 155 149 148 143 145 151 153 159 160 162 163 167 164 158 158 155 148 158 140 129 127 132 129 123 117 86 72 75 65 58 72 73 72 66 74 86 87 84 83 80 77 74 70 66 60 59 59 56 52 49 56 57 54
188 184 187 185 180 172 174 174 177 176 175 173 170 179 188 186 173 179 162 182 189 182 184 170 171 171 170 171 160 139 141 150 158 158 152 152 152 157 160 162 160 162 160 147 145 148 147 146 146 133 150 140 142 151 149 127 109 144 134 121 72 53 70 70 66 56 61 63 81 83 81 89 95 98 89 78 70 73 69 62 58 50 45 55 68
181 186 188 175 178 180 178 174 180 178 174 166 166 183 175 172 161 163 166 176 196 200 180 153 136 158 163 162 159 151 155 156 162 162 159 160 160 160 166 166 166 154 145 148 149 151 152 152 160 155 146 124 131 156 161 153 129 122 111 95 150 96 68 45 55 71 81 79 74 81 89 92 113 128 124 109 93 80 71 66 59 53 43 52 67
176 183 182 182 182 186 177 178 182 178 167 166 170 172 167 170 182 159 169 154 158 132 121 127 136 140 159 152 149 159 163 163 164 164 163 164 164 167 165 167 168 168 162 158 162 162 163 164 164 173 153 138 153 170 189 152 140 141 153 171 170 120 125 232 153 127 96 114 107 118 110 113 108 114 105 104 106 87 81 68 57 55 48 53 75
185 185 184 184 188 191 181 177 175 178 172 159 165 163 156 153 127 76 89 84 87 128 137 168 182 172 143 165 172 154 164 165 170 169 166 168 170 168 167 171 169 171 168 165 168 170 174 173 172 171 175 153 157 156 194 163 160 186 131 125 109 165 205 170 122 34 98 82 125 127 137 140 158 140 111 117 112 112 101 84 67 45 51 50 70
190 192 185 186 178 181 175 171 168 175 176 166 165 166 168 164 156 154 159 160 171 175 189 188 179 181 181 141 137 171 166 169 176 173 172 168 171 173 170 169 171 170 170 172 173 169 171 173 180 178 172 169 152 156 176 213 177 193 164 161 165 169 155 162 118 189 189 180 160 141 145 170 163 132 129 135 141 139 130 122 105 85 52 47 46
199 178 179 186 179 175 178 174 171 176 173 167 168 168 169 178 181 185 183 186 182 203 180 152 168 162 147 167 165 165 174 172 177 176 176 174 171 166 169 176 172 171 168 163 173 177 175 178 176 179 180 159 150 159 175 178 177 211 133 132 117 131 134 140 181 105 145 254 166 153 189 174 168 143 149 164 155 137 139 132 143 142 92 57 53
181 178 185 185 182 178 176 176 165 168 176 167 175 173 174 179 182 192 193 194 195 184 173 160 144 146 158 168 160 169 173 175 178 183 181 175 172 166 169 176 175 173 168 174 178 179 174 178 182 178 169 168 165 163 173 171 178 193 158 127 75 117 149 96 148 160 151 158 219 227 188 185 200 181 163 164 162 158 159 158 167 165 148 126 127
177 182 184 182 177 173 172 175 170 169 175 174 165 172 174 178 183 190 200 196 181 160 149 150 156 160 167 153 166 165 172 171 176 180 182 181 181 170 169 181 178 176 174 174 178 179 180 176 177 176 173 169 173 162 163 178 179 168 145 148 114 135 174 138 150 132 139 123 168 182 189 204 194 237 182 167 166 153 162 170 178 166 167 173 177
177 174 175 173 178 171 174 178 178 166 170 177 165 174 175 170 182 193 202 197 183 160 160 164 162 164 170 166 166 167 173 167 174 178 179 184 186 175 175 183 183 178 176 178 176 180 184 183 177 175 171 165 165 161 171 170 169 152 155 152 141 148 107 101 177 148 88 131 159 192 184 172 190 223 178 173 157 162 153 160 178 187 171 180 170
167 166 173 175 175 172 172 180 182 164 166 171 166 177 181 181 186 192 201 200 190 171 168 170 162 171 176 170 170 172 171 175 169 184 192 187 188 177 181 187 186 180 180 179 181 180 183 184 177 175 171 162 164 157 156 156 160 154 160 159 162 166 166 170 181 185 149 136 89 157 167 193 182 165 204 172 165 173 167 174 191 199 174 170 183